Find Qianfan Jigui 03-17

NORAD ID: 62254 Int'l Des: 2024-232 Owner: YUANX Country: CN Constellation: qianfan operational
LEOCIRCULARPOLAR

リアルタイム位置

3D地球を読み込み中...

Qianfan Jigui 03-17について

説明を読み込み中...

次回通過

Passes for default location (London). Set your location on the main map for personalized predictions.

高度履歴

Loading altitude history...

軌道要素

1 62254U 24232T 26105.91315115 .00000122 00000-0 17050-3 0 9993
2 62254 89.0118 28.7179 0013262 186.6907 173.4069 13.51012302 84676
Epoch: Apr 15, 2026 • Age: 7 hours

現在のステータス

高度 1082.5 km
速度 7.31 km/s
衛星直下点 40.49°N, 106.78°E
打ち上げ日 Dec 5, 2024
運用期間 1.3 years
タイプ internet

技術仕様

分類 Payload
質量 267.00 kg
乾燥質量 267.00 kg
総質量 267.00 kg
長さ 0.30 m
直径 3.00 m
スパン 10.00 m
形状 Box+pan
製造者 SECM
バスタイプ Qianfan
フェーズステータス In Orbit
所有者/国 YUANX/CN

Most Searched